Madisonville, KY

2:37 AM CST on December 16, 2019 (GMT -0600)
Madisonville

Weather History for K2I0 - November, 2019

Change the Weather History Date:

Tuesday, November 12, 2019

  Actual Average (WUND) Record (WUND)
Temperature  
Mean Temperature 18 °F -  
Max Temperature 24 °F - - (-1)
Min Temperature 10 °F - - (-1)
Degree Days  
Heating Degree Days 48    
Moisture  
Dew Point 6 °F    
Average Humidity 58    
Maximum Humidity 78    
Minimum Humidity 45    
Precipitation  
Precipitation 0.00 in - - ()
Sea Level Pressure  
Sea Level Pressure 30.49 in    
Wind  
Wind Speed 13 mph ()    
Max Wind Speed 23 mph    
Max Gust Speed 31 mph    
Visibility 10.0 miles    
Events      
Averages and records for this station are not official NWS values.
T = Trace of Precipitation, MM = Missing Value Source: Averaged Metar Reports

Daily Weather History Graph

Daily Weather History Graph

Search for Another Location

Airport or City:

Astronomy

Nov. 12, 2019 Rise Set
Actual Time 6:25 AM CST 4:41 PM CST
Civil Twilight 5:57 AM CST 5:09 PM CST
Nautical Twilight 5:26 AM CST 5:40 PM CST
Astronomical Twilight 4:55 AM CST 6:11 PM CST
Moon 5:07 PM CST (11/12) 6:17 AM CST (11/12)
Length of Visible Light 11h 11m
Length of Day
10h 15m
Full, 100% of the Moon is Illuminated
Nov 12
Full
Nov 19
Last Quarter
Nov 26
New
Dec 4
First Quarter
Dec 11
Full

Hourly Weather History & Observations

Time (CST) Temp. Windchill Dew Point Humidity Pressure Visibility Wind Dir Wind Speed Gust Speed Precip Events Conditions
12:15 AM 24.4 °F 10.2 °F 15.4 °F 69% 30.37 in 10.0 mi North 19.6 mph 27.6 mph N/A   Overcast
12:35 AM 23.9 °F 8.4 °F 14.2 °F 66% 30.37 in 10.0 mi North 23.0 mph 31.1 mph N/A   Overcast
12:55 AM 23.9 °F 9.5 °F 14.0 °F 66% 30.38 in 10.0 mi North 19.6 mph 26.5 mph N/A   Overcast
1:15 AM 23.4 °F 8.4 °F 12.4 °F 63% 30.38 in 10.0 mi North 20.7 mph 27.6 mph N/A   Overcast
1:35 AM 23.0 °F 7.6 °F 11.5 °F 61% 30.39 in 10.0 mi North 21.9 mph 29.9 mph N/A   Overcast
1:55 AM 22.8 °F 9.4 °F 11.3 °F 61% 30.40 in 10.0 mi North 16.1 mph 24.2 mph N/A   Overcast
2:15 AM 22.1 °F 7.2 °F 10.0 °F 60% 30.41 in 10.0 mi North 19.6 mph 25.3 mph N/A   Overcast
2:35 AM 21.7 °F 7.5 °F 9.0 °F 58% 30.42 in 10.0 mi NNW 17.3 mph 27.6 mph N/A   Overcast
2:55 AM 21.0 °F 7.1 °F 7.7 °F 56% 30.42 in 10.0 mi North 16.1 mph - N/A   Overcast
3:15 AM 19.9 °F 4.8 °F 7.3 °F 58% 30.43 in 10.0 mi NNW 18.4 mph 24.2 mph N/A   Mostly Cloudy
3:35 AM 19.2 °F 5.8 °F 7.5 °F 60% 30.44 in 10.0 mi North 13.8 mph 25.3 mph N/A   Scattered Clouds
3:55 AM 18.5 °F 2.4 °F 7.0 °F 61% 30.45 in 10.0 mi North 19.6 mph 24.2 mph N/A   Clear
4:15 AM 17.6 °F 4.3 °F 6.8 °F 63% 30.46 in 10.0 mi North 12.7 mph 19.6 mph N/A   Clear
4:35 AM 17.4 °F 2.9 °F 6.4 °F 62% 30.46 in 10.0 mi North 15.0 mph 23.0 mph N/A   Clear
4:55 AM 16.7 °F 3.2 °F 5.9 °F 63% 30.47 in 10.0 mi North 12.7 mph - N/A   Clear
5:15 AM 16.5 °F 3.6 °F 5.0 °F 61% 30.48 in 10.0 mi NNW 11.5 mph - N/A   Clear
5:35 AM 16.0 °F 2.3 °F 5.2 °F 62% 30.48 in 10.0 mi NNW 12.7 mph 19.6 mph N/A   Clear
5:55 AM 15.8 °F 2.1 °F 5.0 °F 62% 30.49 in 10.0 mi North 12.7 mph - N/A   Clear
6:15 AM 15.4 °F 2.3 °F 4.8 °F 63% 30.50 in 10.0 mi North 11.5 mph - N/A   Clear
6:35 AM 15.3 °F 2.8 °F 4.8 °F 63% 30.51 in 10.0 mi North 10.4 mph - N/A   Clear
6:55 AM 15.6 °F 4.0 °F 5.0 °F 63% 30.51 in 10.0 mi North 9.2 mph - N/A   Clear
7:15 AM 15.8 °F 1.4 °F 4.8 °F 62% 30.52 in 10.0 mi North 13.8 mph - N/A   Clear
7:35 AM 16.3 °F 2.1 °F 5.4 °F 62% 30.53 in 10.0 mi North 13.8 mph 18.4 mph N/A   Clear
7:55 AM 16.7 °F 2.6 °F 5.2 °F 61% 30.53 in 10.0 mi NNW 13.8 mph 17.3 mph N/A   Clear
8:15 AM 17.1 °F 4.3 °F 4.8 °F 59% 30.54 in 10.0 mi North 11.5 mph - N/A   Clear
8:35 AM 17.6 °F 3.2 °F 4.5 °F 56% 30.55 in 10.0 mi North 15.0 mph 18.4 mph N/A   Clear
8:55 AM 18.1 °F 4.4 °F 4.5 °F 55% 30.56 in 10.0 mi North 13.8 mph 19.6 mph N/A   Clear
9:15 AM 18.5 °F 5.5 °F 4.3 °F 54% 30.55 in 10.0 mi North 12.7 mph - N/A   Clear
9:35 AM 19.2 °F 4.7 °F 4.5 °F 53% 30.55 in 10.0 mi North 16.1 mph - N/A   Clear
9:55 AM 19.4 °F 4.1 °F 3.7 °F 51% 30.55 in 10.0 mi North 18.4 mph - N/A   Clear
10:15 AM 19.4 °F 4.1 °F 3.9 °F 51% 30.56 in 10.0 mi NNW 18.4 mph 23.0 mph N/A   Clear
10:35 AM 19.8 °F 5.9 °F 3.9 °F 50% 30.55 in 10.0 mi North 15.0 mph - N/A   Clear
10:55 AM 20.3 °F 6.6 °F 4.1 °F 50% 30.54 in 10.0 mi NNW 15.0 mph 20.7 mph N/A   Clear
11:15 AM 20.8 °F 8.4 °F 4.5 °F 49% 30.54 in 10.0 mi North 12.7 mph 18.4 mph N/A   Clear
11:35 AM 21.2 °F 8.9 °F 4.3 °F 48% 30.53 in 10.0 mi North 12.7 mph - N/A   Clear
11:55 AM 21.4 °F 9.1 °F 4.5 °F 48% 30.52 in 10.0 mi North 12.7 mph 17.3 mph N/A   Clear
12:15 PM 21.7 °F 10.8 °F 5.4 °F 49% 30.52 in 10.0 mi North 10.4 mph - N/A   Clear
12:35 PM 21.9 °F 9.8 °F 4.8 °F 48% 30.52 in 10.0 mi North 12.7 mph - N/A   Clear
12:55 PM 22.3 °F 9.7 °F 5.0 °F 48% 30.52 in 10.0 mi North 13.8 mph 18.4 mph N/A   Clear
1:15 PM 22.5 °F 11.7 °F 5.4 °F 48% 30.51 in 10.0 mi North 10.4 mph 21.9 mph N/A   Clear
1:35 PM 22.6 °F 11.9 °F 4.6 °F 46% 30.51 in 10.0 mi NNW 10.4 mph 23.0 mph N/A   Clear
1:55 PM 23.0 °F 12.4 °F 5.2 °F 47% 30.51 in 10.0 mi North 10.4 mph - N/A   Clear
2:15 PM 22.8 °F 11.5 °F 5.0 °F 47% 30.50 in 10.0 mi NNW 11.5 mph 16.1 mph N/A   Clear
2:35 PM 22.8 °F 10.4 °F 4.8 °F 46% 30.50 in 10.0 mi North 13.8 mph - N/A   Clear
2:55 PM 22.5 °F 11.7 °F 4.8 °F 47% 30.50 in 10.0 mi North 10.4 mph 18.4 mph N/A   Clear
3:15 PM 22.5 °F 11.1 °F 3.9 °F 45% 30.50 in 10.0 mi North 11.5 mph - N/A   Clear
3:35 PM 22.1 °F 10.6 °F 4.6 °F 47% 30.50 in 10.0 mi NNW 11.5 mph - N/A   Clear
3:55 PM 21.7 °F 10.8 °F 4.1 °F 47% 30.50 in 10.0 mi NNW 10.4 mph - N/A   Clear
4:35 PM 20.1 °F 8.1 °F 3.2 °F 48% 30.50 in 10.0 mi North 11.5 mph - N/A   Clear
4:55 PM 19.0 °F 8.2 °F 3.6 °F 51% 30.50 in 10.0 mi North 9.2 mph - N/A   Clear
5:35 PM 18.3 °F 9.1 °F 3.9 °F 53% 30.52 in 10.0 mi North 6.9 mph - N/A   Clear
5:55 PM 17.6 °F 6.4 °F 4.1 °F 56% 30.52 in 10.0 mi North 9.2 mph - N/A   Clear
6:15 PM 17.2 °F 6.8 °F 4.3 °F 57% 30.52 in 10.0 mi North 8.1 mph - N/A   Clear
7:15 PM 15.8 °F 8.6 °F 3.7 °F 59% 30.52 in 10.0 mi North 4.6 mph - N/A   Clear
7:35 PM 14.9 °F 9.2 °F 3.7 °F 61% 30.52 in 10.0 mi North 3.5 mph - N/A   Clear
8:15 PM 15.1 °F - 4.6 °F 63% 30.51 in 10.0 mi Calm Calm - N/A   Clear
8:35 PM 14.0 °F - 4.5 °F 66% 30.50 in 10.0 mi Calm Calm - N/A   Clear
8:55 PM 13.3 °F - 4.5 °F 68% 30.50 in 10.0 mi Calm Calm - N/A   Clear
9:15 PM 12.4 °F - 4.6 °F 71% 30.50 in 10.0 mi Calm Calm - N/A   Clear
9:35 PM 11.3 °F - 4.5 °F 74% 30.50 in 10.0 mi Calm Calm - N/A   Clear
9:55 PM 11.7 °F - 4.6 °F 73% 30.50 in 10.0 mi Calm Calm - N/A   Clear
10:15 PM 12.9 °F - 5.2 °F 71% 30.49 in 10.0 mi Calm Calm - N/A   Clear
10:35 PM 12.4 °F - 5.4 °F 73% 30.49 in 10.0 mi Calm Calm - N/A   Clear
10:55 PM 12.2 °F - 5.2 °F 73% 30.48 in 10.0 mi Calm Calm - N/A   Clear
11:15 PM 12.4 °F - 5.4 °F 73% 30.47 in 10.0 mi Calm Calm - N/A   Clear
11:35 PM 11.5 °F - 4.8 °F 75% 30.47 in 10.0 mi Calm Calm - N/A   Clear
11:55 PM 10.4 °F - 4.8 °F 78% 30.47 in 10.0 mi Calm Calm - N/A   Clear